�v������,���r���O(���x),�����t���O,���r���O(���x),�����t���O,��1(���x),�����t���O,�������x,�����t���O,�C�ۑ�(���x),�����t���O,�C�ۑ�(���x),�����t���O
2/1/2004 0:00,19.4,0,49.7,0,17.4,0,-46.1,0,5.7,0,36.8,0
2/1/2004 0:15,19.4,0,48.6,0,17.4,0,-44.8,0,5.5,0,37.3,0
2/1/2004 0:30,19.5,0,47.6,0,17.5,0,-45.7,0,5.4,0,37.8,0
2/1/2004 0:45,19.5,0,46.4,0,17.5,0,-46.2,0,5.2,0,38.3,0
2/1/2004 1:00,19.5,0,45.6,0,17.6,0,-45.4,0,5.1,0,38.8,0
2/1/2004 1:15,19.3,0,44.6,0,17.7,0,-45,0,5,0,39.3,0
2/1/2004 1:30,19,0,43.8,0,17.6,0,-45.4,0,4.9,0,39.8,0
2/1/2004 1:45,18.6,0,43.5,0,17.6,0,-45.3,0,4.8,0,40.3,0
2/1/2004 2:00,18.2,0,43.6,0,17.6,0,-46.2,0,4.7,0,40.8,0
2/1/2004 2:15,17.8,0,43.5,0,17.4,0,-45.5,0,4.7,0,40.5,0
2/1/2004 2:30,17.4,0,43.6,0,17.3,0,-45.6,0,4.7,0,40.3,0
2/1/2004 2:45,17.1,0,43.7,0,17.2,0,-45.8,0,4.7,0,40,0
2/1/2004 3:00,16.7,0,44.1,0,17.1,0,-45.8,0,4.7,0,39.8,0
2/1/2004 3:15,16.3,0,44.2,0,17,0,-45.9,0,4.7,0,39.8,0
2/1/2004 3:30,16,0,44.5,0,16.9,0,-45.6,0,4.7,0,39.8,0
2/1/2004 3:45,15.7,0,44.7,0,16.8,0,-45.9,0,4.7,0,39.8,0
2/1/2004 4:00,15.4,0,44.8,0,16.6,0,-46.1,0,4.7,0,39.8,0
2/1/2004 4:15,15.1,0,44.9,0,16.5,0,-45.6,0,4.6,0,39.8,0
2/1/2004 4:30,14.8,0,45,0,16.4,0,-45.7,0,4.6,0,39.8,0
2/1/2004 4:45,14.6,0,45.2,0,16.3,0,-46,0,4.5,0,39.8,0
2/1/2004 5:00,14.4,0,45.3,0,16.2,0,-46.2,0,4.5,0,39.8,0
2/1/2004 5:15,14.2,0,45.3,0,16,0,-46.2,0,4.5,0,39.3,0
2/1/2004 5:30,14,0,45.4,0,15.9,0,-46.2,0,4.6,0,38.8,0
2/1/2004 5:45,13.8,0,45.7,0,15.7,0,-45.9,0,4.6,0,38.3,0
2/1/2004 6:00,13.6,0,45.8,0,15.6,0,-45.9,0,4.7,0,37.8,0
2/1/2004 6:15,13.5,0,47.7,0,15.5,0,-46.1,0,4.6,0,38.3,0
2/1/2004 6:30,13.3,0,48.2,0,15.3,0,-46.2,0,4.5,0,38.8,0
2/1/2004 6:45,13.5,0,48.9,0,15.2,0,-45.8,0,4.4,0,39.3,0
2/1/2004 7:00,14,0,47.5,0,15.1,0,-46,0,4.3,0,39.8,0
2/1/2004 7:15,14.6,0,45.6,0,15,0,-45.8,0,4.2,0,39.8,0
2/1/2004 7:30,15.2,0,44.4,0,14.9,0,-45.6,0,4.1,0,39.8,0
2/1/2004 7:45,15.7,0,43.8,0,14.9,0,-46,0,4.1,0,39.8,0
2/1/2004 8:00,15.6,0,43.7,0,14.9,0,-46.2,0,4,0,39.8,0
2/1/2004 8:15,15.8,0,44,0,14.9,0,-46,0,4.1,0,39.3,0
2/1/2004 8:30,16.3,0,44.5,0,14.8,0,-45.2,0,4.2,0,38.8,0
2/1/2004 8:45,16.7,0,44.7,0,14.8,0,-45.1,0,4.4,0,38.3,0
2/1/2004 9:00,17.2,0,45.9,0,14.9,0,-46,0,4.5,0,37.8,0
2/1/2004 9:15,17.5,0,46.5,0,15,0,-45.5,0,4.9,0,37,0
2/1/2004 9:30,17.9,0,49.3,0,15.2,0,-45.7,0,5.3,0,36.3,0
2/1/2004 9:45,18.5,0,52.1,0,15.4,0,-45.7,0,5.8,0,35.5,0
2/1/2004 10:00,18.6,0,51.3,0,15.7,0,-45.9,0,6.2,0,34.8,0
2/1/2004 10:15,19,0,51.5,0,15.9,0,-45.9,0,6.5,0,33.5,0
2/1/2004 10:30,19.2,0,52.3,0,16.2,0,-46.2,0,6.9,0,32.3,0
2/1/2004 10:45,19.4,0,52.5,0,16.4,0,-45.9,0,7.2,0,31,0
2/1/2004 11:00,19.5,0,50.7,0,16.7,0,-45.7,0,7.6,0,29.8,0
2/1/2004 11:15,19.7,0,49.7,0,16.9,0,-45.2,0,7.9,0,29.3,0
2/1/2004 11:30,19.8,0,48.5,0,17.1,0,-45.7,0,8.2,0,28.8,0
2/1/2004 11:45,19.8,0,47.3,0,17.4,0,-45.1,0,8.5,0,28.3,0
2/1/2004 12:00,19.8,0,44,0,17.4,0,-45.1,0,8.8,0,27.8,0
2/1/2004 12:15,19.7,0,42,0,17.5,0,-45.4,0,9,0,27.5,0
2/1/2004 12:30,19.8,0,40,0,17.7,0,-45.1,0,9.2,0,27.3,0
2/1/2004 12:45,19.7,0,36.7,0,17.6,0,-45.5,0,9.4,0,27,0
2/1/2004 13:00,19.7,0,35.7,0,17.8,0,-43.2,0,9.6,0,26.8,0
2/1/2004 13:15,19.6,0,37.6,0,17.7,0,-44.5,0,9.6,0,27.3,0
2/1/2004 13:30,20,0,40.3,0,17.9,0,-45,0,9.6,0,27.8,0
2/1/2004 13:45,20.1,0,40.1,0,18.1,0,-45,0,9.7,0,28.3,0
2/1/2004 14:00,20.4,0,42.7,0,18.2,0,-45,0,9.7,0,28.8,0
2/1/2004 14:15,20.2,0,37.7,0,18.1,0,-44.6,0,9.5,0,29,0
2/1/2004 14:30,19.9,0,37.6,0,17.9,0,-44.8,0,9.4,0,29.3,0
2/1/2004 14:45,19.6,0,35.2,0,17.8,0,-44.4,0,9.2,0,29.5,0
2/1/2004 15:00,19.6,0,34.8,0,17.6,0,-45.4,0,9.1,0,29.8,0
2/1/2004 15:15,19.4,0,36,0,17.5,0,-45.2,0,9.2,0,30,0
2/1/2004 15:30,19.3,0,36,0,17.3,0,-45.8,0,9.2,0,30.3,0
2/1/2004 15:45,19,0,34.7,0,17.1,0,-45.1,0,9.3,0,30.5,0
2/1/2004 16:00,18.9,0,33.6,0,16.8,0,-44.9,0,9.4,0,30.8,0
2/1/2004 16:15,18.7,0,33.4,0,16.6,0,-45,0,9.4,0,31.8,0
2/1/2004 16:30,18.5,0,33.5,0,16.4,0,-44.7,0,9.4,0,32.8,0
2/1/2004 16:45,18.4,0,33.8,0,16.2,0,-45.2,0,9.4,0,33.8,0
2/1/2004 17:00,18.2,0,33.8,0,16,0,-44.5,0,9.4,0,34.8,0
2/1/2004 17:15,18.1,0,34.3,0,15.9,0,-44.8,0,9.4,0,35.5,0
2/1/2004 17:30,17.7,0,37.2,0,15.9,0,9.2,0,9.3,0,36.3,0
2/1/2004 17:45,17.8,0,37.8,0,15.7,0,9.2,0,9.3,0,37,0
2/1/2004 18:00,17.8,0,38.1,0,15.6,0,9.3,0,9.3,0,37.8,0
2/1/2004 18:15,17.9,0,41.1,0,15.6,0,8.5,0,9.2,0,39.8,0
2/1/2004 18:30,18.5,0,42.1,0,15.9,0,8.5,0,9.2,0,41.8,0
2/1/2004 18:45,18.9,0,43.1,0,16.2,0,8.6,0,9.1,0,43.8,0
2/1/2004 19:00,19.2,0,47.4,0,16.4,0,8.6,0,9.1,0,45.8,0
2/1/2004 19:15,19.7,0,46.8,0,16.6,0,8.7,0,9,0,48.3,0
2/1/2004 19:30,19.5,0,46,0,16.8,0,8.7,0,8.9,0,50.8,0
2/1/2004 19:45,19.7,0,47.7,0,17,0,8.8,0,8.8,0,53.3,0
2/1/2004 20:00,19.8,0,46.6,0,17.2,0,8.7,0,8.7,0,55.8,0
2/1/2004 20:15,19.9,0,46.3,0,17.2,0,8.8,0,8.6,0,54.5,0
2/1/2004 20:30,20.1,0,48,0,17.3,0,8.8,0,8.5,0,53.3,0
2/1/2004 20:45,20.2,0,48.8,0,17.4,0,8.9,0,8.5,0,52,0
2/1/2004 21:00,20.2,0,49.5,0,17.5,0,9,0,8.4,0,50.8,0
2/1/2004 21:15,20.3,0,50,0,17.7,0,9,0,8.3,0,51.5,0
2/1/2004 21:30,20.3,0,50.9,0,17.8,0,9.1,0,8.2,0,52.3,0
2/1/2004 21:45,20.4,0,51.9,0,17.9,0,9.1,0,8.1,0,53,0
2/1/2004 22:00,20.2,0,52.5,0,18,0,9.2,0,8,0,53.8,0
2/1/2004 22:15,19.9,0,54.8,0,18.1,0,9.3,0,8,0,54.3,0
2/1/2004 22:30,19.7,0,56.1,0,18.1,0,9.3,0,8,0,54.8,0
2/1/2004 22:45,19.6,0,54.1,0,18.1,0,9.4,0,8,0,55.3,0
2/1/2004 23:00,19.3,0,53.2,0,18.1,0,9.5,0,8,0,55.8,0
2/1/2004 23:15,19.1,0,52.7,0,18,0,9.5,0,7.9,0,55.5,0
2/1/2004 23:30,18.4,0,53.3,0,18,0,9.6,0,7.8,0,55.3,0
2/1/2004 23:45,18.1,0,55.5,0,17.9,0,9.7,0,7.8,0,55,0
2/2/2004 0:00,18,0,56,0,17.9,0,9.7,0,7.7,0,54.8,0
2/2/2004 0:15,17.8,0,56.2,0,17.8,0,9.8,0,7.7,0,54.8,0
2/2/2004 0:30,17.5,0,56.2,0,17.8,0,9.8,0,7.8,0,54.8,0
2/2/2004 0:45,17.4,0,56.3,0,17.7,0,9.9,0,7.8,0,54.8,0
2/2/2004 1:00,18.2,0,53.7,0,17.6,0,9.9,0,7.9,0,54.8,0
2/2/2004 1:15,18.7,0,53.4,0,17.5,0,10,0,7.9,0,54.5,0
2/2/2004 1:30,19.1,0,51.7,0,17.5,0,9.3,0,7.8,0,54.3,0
2/2/2004 1:45,19.3,0,49.9,0,17.5,0,9.3,0,7.8,0,54,0
2/2/2004 2:00,19.5,0,49,0,17.6,0,9.4,0,7.8,0,53.8,0
2/2/2004 2:15,19.7,0,48.2,0,17.7,0,9.5,0,7.6,0,54.5,0
2/2/2004 2:30,19.8,0,47.7,0,17.7,0,9.5,0,7.5,0,55.3,0
2/2/2004 2:45,19.8,0,47.2,0,17.7,0,9.6,0,7.3,0,56,0
2/2/2004 3:00,19.9,0,46.7,0,17.8,0,9.6,0,7.2,0,56.8,0
2/2/2004 3:15,20,0,46.1,0,17.8,0,9.7,0,7,0,57.3,0
2/2/2004 3:30,20,0,45.9,0,17.8,0,9.7,0,6.9,0,57.8,0
2/2/2004 3:45,20,0,45.6,0,17.9,0,9.8,0,6.7,0,58.3,0
2/2/2004 4:00,20.1,0,45.1,0,17.9,0,9.8,0,6.6,0,58.8,0
2/2/2004 4:15,20,0,45.2,0,17.9,0,9.4,0,6.5,0,56.8,0
2/2/2004 4:30,20,0,44.5,0,17.9,0,9.4,0,6.3,0,54.8,0
2/2/2004 4:45,20,0,44.8,0,17.9,0,9.5,0,6.2,0,52.8,0
2/2/2004 5:00,20,0,44.8,0,17.9,0,9.5,0,6.1,0,50.8,0
2/2/2004 5:15,20,0,44.5,0,17.9,0,9.3,0,6.1,0,50.5,0
2/2/2004 5:30,20,0,44.1,0,17.9,0,9.3,0,6,0,50.3,0
2/2/2004 5:45,20,0,43.8,0,17.9,0,9.3,0,6,0,50,0
2/2/2004 6:00,19.9,0,43.7,0,18,0,9.4,0,6,0,49.8,0
2/2/2004 6:15,19.9,0,43.3,0,17.9,0,9.4,0,6,0,49.3,0
2/2/2004 6:30,19.9,0,43.1,0,18,0,9,0,5.9,0,48.8,0
2/2/2004 6:45,19.9,0,42.8,0,18,0,9,0,5.9,0,48.3,0
2/2/2004 7:00,19.9,0,42.6,0,18,0,9.1,0,5.9,0,47.8,0
2/2/2004 7:15,19.8,0,43.8,0,17.9,0,8.9,0,5.9,0,48,0
2/2/2004 7:30,19.8,0,43.5,0,17.8,0,8.9,0,5.9,0,48.3,0
2/2/2004 7:45,19.7,0,44.1,0,17.7,0,9,0,6,0,48.5,0
2/2/2004 8:00,19.3,0,44.1,0,17.7,0,9,0,6,0,48.8,0
2/2/2004 8:15,19,0,42.5,0,17.6,0,9.1,0,6.1,0,48.8,0
2/2/2004 8:30,18.5,0,44.9,0,17.5,0,9.1,0,6.2,0,48.8,0
2/2/2004 8:45,18.1,0,45.7,0,17.3,0,9.2,0,6.3,0,48.8,0
2/2/2004 9:00,17.8,0,45.7,0,17.2,0,9.2,0,6.4,0,48.8,0
2/2/2004 9:15,17.5,0,46,0,17,0,9.3,0,6.3,0,49.3,0
2/2/2004 9:30,17.1,0,46,0,16.9,0,9.2,0,6.2,0,49.8,0
2/2/2004 9:45,16.9,0,45.8,0,16.8,0,9.3,0,6.2,0,50.3,0
2/2/2004 10:00,15.8,0,44,0,16.6,0,9.3,0,6.1,0,50.8,0
2/2/2004 10:15,15.5,0,44.9,0,16.4,0,9.3,0,6.1,0,51,0
2/2/2004 10:30,15.2,0,45.3,0,16.2,0,9.4,0,6.1,0,51.3,0
2/2/2004 10:45,14.8,0,52.2,0,16.1,0,9.4,0,6.2,0,51.5,0
2/2/2004 11:00,14.6,0,47.2,0,16,0,9.5,0,6.2,0,51.8,0
2/2/2004 11:15,14.5,0,48.7,0,15.8,0,9.5,0,6,0,55.3,0
2/2/2004 11:30,14.4,0,49.5,0,15.6,0,9.5,0,5.9,0,58.8,0
2/2/2004 11:45,14.2,0,49.9,0,15.5,0,9.6,0,5.7,0,62.3,0
2/2/2004 12:00,14.1,0,50.7,0,15.4,0,9.6,0,5.6,0,65.8,0
2/2/2004 12:15,13.9,0,51,0,15.2,0,9.7,0,5.3,0,68.3,0
2/2/2004 12:30,13.8,0,51.6,0,15.1,0,9.7,0,5.1,0,70.8,0
2/2/2004 12:45,13.7,0,51.7,0,14.9,0,9.8,0,4.8,0,73.3,0
2/2/2004 13:00,13.7,0,51.7,0,14.8,0,9.8,0,4.6,0,75.8,0
2/2/2004 13:15,13.5,0,52.5,0,14.7,0,8.5,0,4.5,0,77.3,0
2/2/2004 13:30,13.3,0,52.8,0,14.6,0,8.6,0,4.3,0,78.8,0
2/2/2004 13:45,13.4,0,54.2,0,14.6,0,8.6,0,4.2,0,80.3,0
2/2/2004 14:00,13.4,0,54.1,0,14.6,0,8.7,0,4.1,0,81.8,0
2/2/2004 14:15,13.4,0,53.9,0,14.6,0,8.7,0,4.2,0,82.6,0
2/2/2004 14:30,13.3,0,53.7,0,14.6,0,8.8,0,4.4,0,83.3,0
2/2/2004 14:45,13.3,0,53.5,0,14.6,0,8.8,0,4.5,0,84.1,0
2/2/2004 15:00,13.2,0,53.6,0,14.6,0,8.9,0,4.7,0,84.8,0
2/2/2004 15:15,13.2,0,54.2,0,14.5,0,8.9,0,4.7,0,84.8,0
2/2/2004 15:30,13.2,0,53.7,0,14.5,0,8.9,0,4.7,0,84.8,0
2/2/2004 15:45,12.8,0,54.5,0,14.5,0,8.9,0,4.8,0,84.8,0
2/2/2004 16:00,12.7,0,54.4,0,14.5,0,9,0,4.8,0,84.8,0
2/2/2004 16:15,12.6,0,54.4,0,14.5,0,9,0,4.8,0,84.8,0
2/2/2004 16:30,12.5,0,54.7,0,14.5,0,9,0,4.9,0,84.8,0
2/2/2004 16:45,12.4,0,56.4,0,14.4,0,9.1,0,4.9,0,84.8,0
2/2/2004 17:00,12.3,0,56.9,0,14.4,0,9.1,0,5,0,84.8,0
2/2/2004 17:15,12.3,0,56.8,0,14.4,0,9.2,0,4.9,0,85.6,0
2/2/2004 17:30,12.2,0,56.6,0,14.4,0,9.2,0,4.9,0,86.3,0
2/2/2004 17:45,12.1,0,56.5,0,14.3,0,9.3,0,4.8,0,87.1,0
2/2/2004 18:00,12.3,0,56.6,0,14.3,0,9.3,0,4.8,0,87.8,0
2/2/2004 18:15,13.4,0,55.1,0,14.3,0,9.2,0,4.9,0,87.8,0
2/2/2004 18:30,14.1,0,53.2,0,14.3,0,9.3,0,5,0,87.8,0
2/2/2004 18:45,14.7,0,49.7,0,14.3,0,9.3,0,5.1,0,87.8,0
2/2/2004 19:00,15.3,0,49.9,0,14.3,0,9.3,0,5.2,0,87.8,0
2/2/2004 19:15,15.8,0,48.1,0,14.3,0,9.4,0,5.2,0,86.6,0
2/2/2004 19:30,16.3,0,48.8,0,14.3,0,9.4,0,5.3,0,85.3,0
2/2/2004 19:45,16.7,0,49.5,0,14.3,0,9.4,0,5.3,0,84.1,0
2/2/2004 20:00,17,0,48.8,0,14.3,0,9.5,0,5.4,0,82.8,0
2/2/2004 20:15,17.3,0,48,0,14.3,0,9.5,0,5.5,0,82.1,0
2/2/2004 20:30,17.5,0,47.8,0,14.4,0,8.4,0,5.6,0,81.3,0
2/2/2004 20:45,17.7,0,47.1,0,14.4,0,8.4,0,5.8,0,80.6,0
2/2/2004 21:00,17.9,0,48.6,0,14.5,0,8.5,0,5.9,0,79.8,0
2/2/2004 21:15,18.1,0,49.2,0,14.5,0,8.5,0,6,0,79.3,0
2/2/2004 21:30,17.9,0,50.5,0,14.7,0,8.6,0,6.2,0,78.8,0
2/2/2004 21:45,17.8,0,54.5,0,15,0,8.6,0,6.3,0,78.3,0
2/2/2004 22:00,17.5,0,54.9,0,15.3,0,8.7,0,6.5,0,77.8,0
2/2/2004 22:15,17.3,0,54.5,0,15.5,0,8.7,0,6.5,0,79.1,0
2/2/2004 22:30,17,0,54.2,0,15.6,0,8.8,0,6.4,0,80.3,0
2/2/2004 22:45,16.8,0,53.8,0,15.6,0,8.8,0,6.4,0,81.6,0
2/2/2004 23:00,16.5,0,53.6,0,15.7,0,8.9,0,6.4,0,82.8,0
2/2/2004 23:15,16.2,0,53.4,0,15.7,0,8.9,0,6.2,0,84.1,0
2/2/2004 23:30,16,0,53.3,0,15.6,0,9,0,5.9,0,85.3,0
2/2/2004 23:45,15.8,0,53.3,0,15.6,0,9,0,5.7,0,86.6,0
2/3/2004 0:00,15.6,0,53.3,0,15.6,0,9.1,0,5.5,0,87.8,0
2/3/2004 0:15,15.4,0,53.2,0,15.5,0,9.1,0,5.5,0,87.8,0
2/3/2004 0:30,15.2,0,53,0,15.5,0,9.2,0,5.6,0,87.8,0
2/3/2004 0:45,15,0,53.1,0,15.4,0,9.2,0,5.6,0,87.8,0
2/3/2004 1:00,14.8,0,53,0,15.3,0,9.3,0,5.7,0,87.8,0
2/3/2004 1:15,14.7,0,53.1,0,15.2,0,9.3,0,5.7,0,87.6,0
2/3/2004 1:30,14.5,0,53.1,0,15.2,0,9.4,0,5.8,0,87.3,0
2/3/2004 1:45,14.3,0,53.4,0,15.1,0,9.4,0,5.8,0,87.1,0
2/3/2004 2:00,14.2,0,53.3,0,15.1,0,9.4,0,5.9,0,86.8,0
2/3/2004 2:15,14.1,0,53.3,0,15,0,9.5,0,6,0,86.3,0
2/3/2004 2:30,13.9,0,53.4,0,14.9,0,9.5,0,6.1,0,85.8,0
2/3/2004 2:45,13.8,0,53.4,0,14.9,0,9.6,0,6.3,0,85.3,0
2/3/2004 3:00,13.7,0,53.4,0,14.8,0,9.6,0,6.4,0,84.8,0
2/3/2004 3:15,13.5,0,53.5,0,14.7,0,9.6,0,6.5,0,83.6,0
2/3/2004 3:30,13.4,0,53.5,0,14.7,0,9.7,0,6.5,0,82.3,0
2/3/2004 3:45,13.3,0,53.5,0,14.6,0,9.7,0,6.6,0,81.1,0
2/3/2004 4:00,13.2,0,53.7,0,14.6,0,9.7,0,6.7,0,79.8,0
2/3/2004 4:15,13.7,0,54.1,0,14.6,0,8.9,0,6.9,0,77.1,0
2/3/2004 4:30,14.2,0,53.1,0,14.7,0,8.9,0,7.1,0,74.3,0
2/3/2004 4:45,14.9,0,52.5,0,14.9,0,9,0,7.4,0,71.6,0
2/3/2004 5:00,15.5,0,51.7,0,15.1,0,9,0,7.6,0,68.8,0
2/3/2004 5:15,16.2,0,50.3,0,15.3,0,9,0,7.6,0,68.1,0
2/3/2004 5:30,16.7,0,49.8,0,15.5,0,9.1,0,7.6,0,67.3,0
2/3/2004 5:45,17,0,49,0,15.6,0,9.1,0,7.6,0,66.6,0
2/3/2004 6:00,17.3,0,48.5,0,15.8,0,9.2,0,7.6,0,65.8,0
2/3/2004 6:15,17.6,0,48.3,0,16,0,9.2,0,7.7,0,65.3,0
2/3/2004 6:30,17.8,0,48.3,0,15.9,0,9.2,0,7.7,0,64.8,0
2/3/2004 6:45,18,0,47.5,0,16.3,0,9.2,0,7.8,0,64.3,0
2/3/2004 7:00,18.1,0,47.3,0,16.2,0,9.2,0,7.9,0,63.8,0
2/3/2004 7:15,18.1,0,48.2,0,16,0,8.6,0,8,0,63,0
2/3/2004 7:30,17.9,0,49.1,0,15.9,0,8.6,0,8,0,62.3,0
2/3/2004 7:45,17.7,0,49.8,0,15.7,0,8.7,0,8.1,0,61.5,0
2/3/2004 8:00,17.6,0,50.4,0,15.6,0,8.7,0,8.2,0,60.8,0
2/3/2004 8:15,17.2,0,51,0,15.6,0,8.8,0,8.6,0,57.5,0
2/3/2004 8:30,16.9,0,51,0,15.5,0,8.8,0,9,0,54.3,0
2/3/2004 8:45,16.7,0,50.6,0,15.5,0,8.8,0,9.4,0,51,0
2/3/2004 9:00,16.5,0,50.5,0,15.5,0,8.9,0,9.8,0,47.8,0
2/3/2004 9:15,16.3,0,50.4,0,15.5,0,8.9,0,9.9,0,47,0
2/3/2004 9:30,16.1,0,50.2,0,15.4,0,9,0,10.1,0,46.3,0
2/3/2004 9:45,15.9,0,50.2,0,15.4,0,9,0,10.2,0,45.5,0
2/3/2004 10:00,15.8,0,50.4,0,15.4,0,9.1,0,10.4,0,44.8,0
2/3/2004 10:15,15.7,0,50.3,0,15.5,0,9.1,0,10.5,0,44.3,0
2/3/2004 10:30,15.6,0,50.3,0,15.5,0,9.2,0,10.7,0,43.8,0
2/3/2004 10:45,15.5,0,50.3,0,15.5,0,9.3,0,10.8,0,43.3,0
2/3/2004 11:00,15.5,0,50.6,0,15.5,0,9.3,0,11,0,42.8,0
2/3/2004 11:15,15.4,0,50.5,0,15.6,0,9.3,0,11.1,0,42.3,0
2/3/2004 11:30,15.4,0,50.6,0,15.7,0,9.4,0,11.2,0,41.8,0
2/3/2004 11:45,15.4,0,50.9,0,15.7,0,9.4,0,11.3,0,41.3,0
2/3/2004 12:00,15.4,0,51.8,0,15.8,0,9.5,0,11.4,0,40.8,0
2/3/2004 12:15,15.4,0,50.7,0,15.9,0,9.5,0,11.4,0,41.3,0
2/3/2004 12:30,15.4,0,50.8,0,16,0,9.6,0,11.4,0,41.8,0
2/3/2004 12:45,15.4,0,50.9,0,16,0,9.6,0,11.5,0,42.3,0
2/3/2004 13:00,15.4,0,51.2,0,16.1,0,9.7,0,11.5,0,42.8,0
2/3/2004 13:15,15.3,0,51.3,0,16.1,0,9.7,0,11.3,0,47.5,0
2/3/2004 13:30,15.3,0,51.1,0,16.1,0,9.8,0,11.2,0,52.3,0
2/3/2004 13:45,15.2,0,51.6,0,16.1,0,9.8,0,11,0,57,0
2/3/2004 14:00,15.2,0,51.8,0,16.1,0,9.9,0,10.9,0,61.8,0
2/3/2004 14:15,15.1,0,51.3,0,16,0,9.9,0,10.8,0,62.8,0
2/3/2004 14:30,15.1,0,51.5,0,16,0,10,0,10.7,0,63.8,0
2/3/2004 14:45,15,0,51.6,0,16,0,10,0,10.7,0,64.8,0
2/3/2004 15:00,14.9,0,51.6,0,16,0,10.1,0,10.6,0,65.8,0
2/3/2004 15:15,14.9,0,51.5,0,15.9,0,10.1,0,10.1,0,68.8,0
2/3/2004 15:30,14.8,0,51.8,0,15.9,0,10.2,0,9.6,0,71.8,0
2/3/2004 15:45,14.8,0,51.9,0,15.9,0,10.3,0,9.2,0,74.8,0
2/3/2004 16:00,14.7,0,51.7,0,15.8,0,10.3,0,8.7,0,77.8,0
2/3/2004 16:15,14.7,0,52.1,0,15.8,0,10.4,0,8.8,0,76.1,0
2/3/2004 16:30,14.6,0,52.1,0,15.7,0,10.4,0,8.8,0,74.3,0
2/3/2004 16:45,14.5,0,51.8,0,15.6,0,10.5,0,8.9,0,72.6,0
2/3/2004 17:00,14.4,0,52.1,0,15.6,0,10.6,0,9,0,70.8,0
2/3/2004 17:15,14.3,0,56.1,0,15.5,0,10.6,0,8.9,0,70.6,0
2/3/2004 17:30,14.2,0,54.8,0,15.5,0,10.7,0,8.8,0,70.3,0
2/3/2004 17:45,14.1,0,54.9,0,15.4,0,10.7,0,8.7,0,70.1,0
2/3/2004 18:00,14,0,55.1,0,15.3,0,10.8,0,8.6,0,69.8,0
2/3/2004 18:15,14.4,0,54,0,15.3,0,10.8,0,8.4,0,69.6,0
2/3/2004 18:30,15.1,0,52.3,0,15.3,0,9.8,0,8.3,0,69.3,0
2/3/2004 18:45,15.9,0,50.8,0,15.4,0,9.9,0,8.1,0,69.1,0
2/3/2004 19:00,16.4,0,49.1,0,15.4,0,9.9,0,8,0,68.8,0
2/3/2004 19:15,16.8,0,47.4,0,15.5,0,9.3,0,7.9,0,68.6,0
2/3/2004 19:30,17.2,0,47.6,0,15.6,0,9.3,0,7.8,0,68.3,0
2/3/2004 19:45,17.5,0,46.7,0,15.7,0,9.4,0,7.8,0,68.1,0
2/3/2004 20:00,17.7,0,44.9,0,15.7,0,9.1,0,7.7,0,67.8,0
2/3/2004 20:15,17.9,0,44.9,0,15.8,0,9.1,0,7.6,0,67.8,0
2/3/2004 20:30,18.2,0,48.3,0,15.9,0,9.2,0,7.6,0,67.8,0
2/3/2004 20:45,18.6,0,50.5,0,16,0,9.2,0,7.5,0,67.8,0
2/3/2004 21:00,18.7,0,49.8,0,16.1,0,9.3,0,7.5,0,67.8,0
2/3/2004 21:15,18.9,0,49,0,16.3,0,9.3,0,7.5,0,68.8,0
2/3/2004 21:30,19.1,0,48.5,0,16.5,0,9.4,0,7.4,0,69.8,0
2/3/2004 21:45,19.2,0,48.6,0,16.8,0,9.4,0,7.4,0,70.8,0
2/3/2004 22:00,19,0,48.8,0,16.9,0,9.5,0,7.4,0,71.8,0
2/3/2004 22:15,18.8,0,48.8,0,16.9,0,9.6,0,7,0,73.8,0
2/3/2004 22:30,18.5,0,49.1,0,17,0,9.6,0,6.6,0,75.8,0
2/3/2004 22:45,18.2,0,50.1,0,17.1,0,9.7,0,6.3,0,77.8,0
2/3/2004 23:00,18,0,50,0,17.1,0,9.7,0,5.9,0,79.8,0
2/3/2004 23:15,17.8,0,50.7,0,17.1,0,9.8,0,5.7,0,80.3,0
2/3/2004 23:30,17.5,0,51.1,0,17,0,9.8,0,5.6,0,80.8,0
2/3/2004 23:45,17.3,0,51.8,0,17,0,9.9,0,5.4,0,81.3,0
2/4/2004 0:00,17,0,52.2,0,16.9,0,10,0,5.3,0,81.8,0
2/4/2004 0:15,16.8,0,52.8,0,16.9,0,10,0,5.2,0,81.6,0
2/4/2004 0:30,17.3,0,52.7,0,17.1,0,10.1,0,5,0,81.3,0
2/4/2004 0:45,17.8,0,55.3,0,17.2,0,10.2,0,4.9,0,81.1,0
2/4/2004 1:00,18.2,0,56.7,0,17.2,0,10.2,0,4.8,0,80.8,0
2/4/2004 1:15,18.6,0,59.3,0,17.3,0,10.3,0,4.7,0,80.8,0
2/4/2004 1:30,18.9,0,60.3,0,17.4,0,10.3,0,4.6,0,80.8,0
2/4/2004 1:45,19.1,0,60.1,0,17.5,0,10.4,0,4.6,0,80.8,0
2/4/2004 2:00,19.2,0,61.1,0,17.6,0,10.4,0,4.5,0,80.8,0
2/4/2004 2:15,19.3,0,61.2,0,17.8,0,10.5,0,4.6,0,80.3,0
2/4/2004 2:30,19.4,0,61,0,17.8,0,10.6,0,4.7,0,79.8,0
2/4/2004 2:45,19.5,0,60.6,0,17.9,0,10.6,0,4.8,0,79.3,0
2/4/2004 3:00,19.5,0,57.9,0,18,0,10.7,0,4.9,0,78.8,0
2/4/2004 3:15,19.5,0,55.7,0,18,0,10.7,0,4.9,0,77.1,0
2/4/2004 3:30,19.5,0,55,0,18,0,10.8,0,4.9,0,75.3,0
2/4/2004 3:45,19.5,0,53.4,0,18,0,10.8,0,4.9,0,73.6,0
2/4/2004 4:00,19.1,0,52.8,0,17.9,0,10.9,0,4.9,0,71.8,0
2/4/2004 4:15,18.6,0,52.5,0,17.7,0,10.9,0,4.9,0,68.8,0
2/4/2004 4:30,18.2,0,52.5,0,17.4,0,10.9,0,4.9,0,65.8,0
2/4/2004 4:45,17.8,0,52.9,0,17.2,0,11,0,4.9,0,62.8,0
2/4/2004 5:00,17.4,0,53.7,0,17.1,0,11,0,4.9,0,59.8,0
2/4/2004 5:15,17.1,0,53.5,0,16.9,0,11.1,0,4.8,0,59.3,0
2/4/2004 5:30,16.7,0,54.1,0,16.7,0,11.1,0,4.7,0,58.8,0
2/4/2004 5:45,16.4,0,54.9,0,16.5,0,11.2,0,4.7,0,58.3,0
2/4/2004 6:00,16,0,54.3,0,16.3,0,11.2,0,4.6,0,57.8,0
2/4/2004 6:15,15.7,0,53.9,0,16.2,0,11.2,0,4.7,0,54.3,0
2/4/2004 6:30,15.5,0,53.7,0,16,0,11.2,0,4.8,0,50.8,0
2/4/2004 6:45,15.6,0,53.1,0,15.9,0,11.3,0,5,0,47.3,0
2/4/2004 7:00,16.2,0,51.7,0,16,0,11.3,0,5.1,0,43.8,0
2/4/2004 7:15,16.7,0,53.3,0,16,0,10,0,5.3,0,42.5,0
2/4/2004 7:30,17.3,0,53.9,0,16.2,0,9.9,0,5.4,0,41.3,0
2/4/2004 7:45,17.5,0,53.8,0,16.2,0,10,0,5.6,0,40,0
2/4/2004 8:00,17.4,0,53,0,16.2,0,9.8,0,5.8,0,38.8,0
2/4/2004 8:15,17.2,0,53,0,16.2,0,9.4,0,6,0,39,0
2/4/2004 8:30,16.9,0,52.6,0,16.2,0,9.4,0,6.3,0,39.3,0
2/4/2004 8:45,16.7,0,52.3,0,16.2,0,9.5,0,6.5,0,39.5,0
2/4/2004 9:00,16.4,0,52.1,0,16.1,0,9.5,0,6.8,0,39.8,0
2/4/2004 9:15,16.3,0,52.5,0,16.1,0,9.5,0,7.1,0,38.8,0
2/4/2004 9:30,16.3,0,56.4,0,16.2,0,9.6,0,7.4,0,37.8,0
2/4/2004 9:45,16.2,0,56.9,0,16.2,0,9.6,0,7.7,0,36.8,0
2/4/2004 10:00,16.1,0,56.5,0,16.2,0,9.7,0,8,0,35.8,0
2/4/2004 10:15,16,0,55.6,0,16.3,0,9.7,0,8.2,0,33,0
2/4/2004 10:30,15.9,0,55.4,0,16.3,0,9.7,0,8.4,0,30.3,0
2/4/2004 10:45,15.8,0,55.3,0,16.4,0,9.8,0,8.6,0,27.5,0
2/4/2004 11:00,15.8,0,55.1,0,16.4,0,9.8,0,8.8,0,24.8,0
2/4/2004 11:15,15.7,0,55.1,0,16.5,0,9.9,0,8.9,0,24.5,0
2/4/2004 11:30,15.7,0,54.2,0,16.6,0,9.9,0,9,0,24.3,0
2/4/2004 11:45,15.6,0,54.3,0,16.6,0,10,0,9.1,0,24,0
2/4/2004 12:00,15.6,0,54.3,0,16.8,0,10,0,9.2,0,23.8,0
2/4/2004 12:15,15.7,0,54,0,16.9,0,10.1,0,9.3,0,25.8,0
2/4/2004 12:30,15.8,0,54.3,0,17,0,10.1,0,9.4,0,27.8,0
2/4/2004 12:45,15.8,0,54,0,17.1,0,10.2,0,9.6,0,29.8,0
2/4/2004 13:00,15.8,0,52.9,0,17.2,0,10.2,0,9.7,0,31.8,0
2/4/2004 13:15,15.8,0,53,0,17.3,0,10.3,0,9.7,0,32.5,0
2/4/2004 13:30,15.8,0,51.4,0,17.3,0,10.3,0,9.6,0,33.3,0
2/4/2004 13:45,15.8,0,51.3,0,17.4,0,10.4,0,9.6,0,34,0
2/4/2004 14:00,15.9,0,52.4,0,17.5,0,10.4,0,9.6,0,34.8,0
2/4/2004 14:15,16.1,0,51.5,0,17.6,0,10.5,0,9.4,0,36,0
2/4/2004 14:30,16.1,0,51.6,0,17.7,0,10.5,0,9.3,0,37.3,0
2/4/2004 14:45,16.3,0,51.1,0,17.8,0,10.6,0,9.1,0,38.5,0
2/4/2004 15:00,16.4,0,50.3,0,17.9,0,10.7,0,9,0,39.8,0
2/4/2004 15:15,16.5,0,50.2,0,18.1,0,10.7,0,9,0,39.5,0
2/4/2004 15:30,16.5,0,50.1,0,18.1,0,10.8,0,8.9,0,39.3,0
2/4/2004 15:45,16.5,0,49.7,0,18.2,0,10.8,0,8.9,0,39,0
2/4/2004 16:00,16.5,0,49.5,0,18.3,0,10.9,0,8.9,0,38.8,0
2/4/2004 16:15,16.6,0,49.2,0,18.4,0,10.9,0,8.9,0,39.8,0
2/4/2004 16:30,16.6,0,49.1,0,18.4,0,11,0,8.9,0,40.8,0
2/4/2004 16:45,16.4,0,47.9,0,18.4,0,11,0,8.9,0,41.8,0
2/4/2004 17:00,16.2,0,47.5,0,18.3,0,11.1,0,8.9,0,42.8,0
2/4/2004 17:15,16.1,0,47.6,0,18.2,0,11.1,0,8.8,0,44.8,0
2/4/2004 17:30,16,0,47.7,0,18.2,0,11.2,0,8.7,0,46.8,0
2/4/2004 17:45,15.9,0,48.1,0,18.1,0,11.2,0,8.6,0,48.8,0
2/4/2004 18:00,15.8,0,48,0,18,0,11.3,0,8.5,0,50.8,0
2/4/2004 18:15,16.1,0,48.5,0,17.9,0,11.3,0,8.2,0,52,0
2/4/2004 18:30,16.9,0,47.8,0,18,0,11.4,0,7.9,0,53.3,0
2/4/2004 18:45,17.2,0,47.7,0,18.1,0,9.8,0,7.7,0,54.5,0
2/4/2004 19:00,17.7,0,47.4,0,18.1,0,9.7,0,7.4,0,55.8,0
2/4/2004 19:15,18,0,45.3,0,18.1,0,9.8,0,7.5,0,54.5,0
2/4/2004 19:30,18.3,0,42.8,0,18.1,0,9.8,0,7.6,0,53.3,0
2/4/2004 19:45,18.5,0,44.4,0,17.9,0,8.8,0,7.7,0,52,0
2/4/2004 20:00,18.7,0,45.2,0,17.9,0,8.7,0,7.8,0,50.8,0
2/4/2004 20:15,18.9,0,45.3,0,17.8,0,8.7,0,7.8,0,48.3,0
2/4/2004 20:30,19.1,0,47.3,0,17.8,0,8.8,0,7.8,0,45.8,0
2/4/2004 20:45,19.2,0,47.5,0,17.8,0,8.9,0,7.9,0,43.3,0
2/4/2004 21:00,19.3,0,47.1,0,17.8,0,9,0,7.9,0,40.8,0
2/4/2004 21:15,19.3,0,46.1,0,17.8,0,9,0,7.8,0,41.5,0
2/4/2004 21:30,19.4,0,47.8,0,17.9,0,9.1,0,7.6,0,42.3,0
2/4/2004 21:45,19.2,0,47,0,17.9,0,9.1,0,7.5,0,43,0
2/4/2004 22:00,19,0,46.6,0,18,0,9.2,0,7.4,0,43.8,0
2/4/2004 22:15,18.7,0,46.4,0,18,0,9.3,0,7.3,0,41.8,0
2/4/2004 22:30,18.3,0,46.4,0,17.9,0,9.3,0,7.2,0,39.8,0
2/4/2004 22:45,18,0,46.7,0,17.8,0,9.4,0,7.1,0,37.8,0
2/4/2004 23:00,17.7,0,46.3,0,17.7,0,9.5,0,7,0,35.8,0
2/4/2004 23:15,17.4,0,46.6,0,17.5,0,9.5,0,6.7,0,37,0
2/4/2004 23:30,17.8,0,46.7,0,17.5,0,9.6,0,6.4,0,38.3,0
2/4/2004 23:45,18.1,0,46,0,17.4,0,9.6,0,6.1,0,39.5,0
2/5/2004 0:00,18.4,0,45.6,0,17.4,0,9.7,0,5.8,0,40.8,0
2/5/2004 0:15,18.6,0,44.9,0,17.4,0,8.5,0,5.7,0,40.8,0
2/5/2004 0:30,18.7,0,44.9,0,17.4,0,8.3,0,5.5,0,40.8,0
2/5/2004 0:45,18.9,0,45.2,0,17.3,0,8.4,0,5.4,0,40.8,0
2/5/2004 1:00,19,0,47.5,0,17.3,0,8.5,0,5.3,0,40.8,0
2/5/2004 1:15,19.1,0,49.2,0,17.4,0,8.7,0,5.2,0,41.3,0
2/5/2004 1:30,18.8,0,50.1,0,17.4,0,8.8,0,5.2,0,41.8,0
2/5/2004 1:45,18.5,0,51.8,0,17.4,0,8.8,0,5.1,0,42.3,0
2/5/2004 2:00,18.2,0,52.9,0,17.3,0,8.9,0,5.1,0,42.8,0
2/5/2004 2:15,17.9,0,54.3,0,17.2,0,8.9,0,5.2,0,41.8,0
2/5/2004 2:30,17.5,0,56.5,0,17.1,0,9,0,5.2,0,40.8,0
2/5/2004 2:45,17.2,0,56.8,0,17,0,9.1,0,5.3,0,39.8,0
2/5/2004 3:00,16.9,0,55,0,16.9,0,9.1,0,5.4,0,38.8,0
2/5/2004 3:15,16.5,0,53.8,0,16.7,0,9.2,0,5.2,0,38.8,0
2/5/2004 3:30,16.2,0,53.2,0,16.6,0,9.2,0,5.1,0,38.8,0
2/5/2004 3:45,15.9,0,53,0,16.4,0,9.3,0,4.9,0,38.8,0
2/5/2004 4:00,15.5,0,52.6,0,16.2,0,9.3,0,4.8,0,38.8,0
2/5/2004 4:15,15.7,0,53.8,0,16.1,0,9.3,0,4.6,0,39.5,0
2/5/2004 4:30,16.3,0,54.7,0,16,0,9.3,0,4.5,0,40.3,0
2/5/2004 4:45,16.7,0,55.6,0,16.1,0,9.4,0,4.3,0,41,0
2/5/2004 5:00,17.1,0,55.8,0,16.1,0,9.4,0,4.2,0,41.8,0
2/5/2004 5:15,17.4,0,56,0,16.1,0,9.5,0,4.1,0,42.3,0
2/5/2004 5:30,17.7,0,55.9,0,16.2,0,9.5,0,4.1,0,42.8,0
2/5/2004 5:45,17.9,0,56.1,0,16.2,0,9.6,0,4,0,43.3,0
2/5/2004 6:00,18.1,0,55.7,0,16.3,0,9.6,0,4,0,43.8,0
2/5/2004 6:15,18.2,0,54.8,0,16.3,0,9.6,0,4,0,43.5,0
2/5/2004 6:30,18.4,0,52.6,0,16.3,0,9.7,0,4,0,43.3,0
2/5/2004 6:45,18.5,0,51.1,0,16.4,0,9.3,0,4.1,0,43,0
2/5/2004 7:00,18.6,0,49.9,0,16.3,0,9.3,0,4.1,0,42.8,0
2/5/2004 7:15,18.6,0,49.6,0,16.2,0,9.3,0,4.2,0,42.5,0
2/5/2004 7:30,18.6,0,50,0,16.1,0,9.3,0,4.3,0,42.3,0
2/5/2004 7:45,18.6,0,49.3,0,15.9,0,9.4,0,4.4,0,42,0
2/5/2004 8:00,18.4,0,49.1,0,15.8,0,9.4,0,4.5,0,41.8,0
2/5/2004 8:15,17.8,0,49.8,0,15.8,0,9,0,4.7,0,40.5,0
2/5/2004 8:30,17.6,0,52.6,0,15.8,0,9.1,0,5,0,39.3,0
2/5/2004 8:45,17.3,0,52.5,0,15.8,0,9.1,0,5.2,0,38,0
2/5/2004 9:00,17.1,0,52.3,0,15.8,0,9.1,0,5.5,0,36.8,0
2/5/2004 9:15,16.9,0,51.7,0,15.8,0,9.2,0,5.6,0,35.8,0
2/5/2004 9:30,16.7,0,51.4,0,15.8,0,9.2,0,5.7,0,34.8,0
2/5/2004 9:45,16.5,0,50.9,0,15.9,0,9.2,0,5.8,0,33.8,0
2/5/2004 10:00,16.3,0,50.8,0,16,0,9.3,0,5.9,0,32.8,0
2/5/2004 10:15,16.2,0,50.6,0,16.1,0,9.3,0,6.4,0,32.8,0
2/5/2004 10:30,16.1,0,51,0,16.1,0,9.3,0,6.8,0,32.8,0
2/5/2004 10:45,16.1,0,50.7,0,16.2,0,9.4,0,7.3,0,32.8,0
2/5/2004 11:00,16,0,50,0,16.3,0,9.4,0,7.8,0,32.8,0
2/5/2004 11:15,15.9,0,50.1,0,16.4,0,9.4,0,8.1,0,34.5,0
2/5/2004 11:30,15.8,0,49.6,0,16.5,0,9.5,0,8.3,0,36.3,0
2/5/2004 11:45,15.8,0,49.5,0,16.6,0,9.5,0,8.6,0,38,0
2/5/2004 12:00,15.7,0,49.1,0,16.7,0,9.6,0,8.9,0,39.8,0